Location: Amherst
(42.5000°N, 72.5000°W)
Time: 14:43:46

ISS - Pass Details

Date: 20 March 2018
Orbit: 403 x 406 km, 51.6° (Epoch: 21 March)

Event Time Altitude Azimuth Distance (km) Brightness Sun altitude
Exits shadow 06:10:08 11° 246° (WSW) 1,375 -1.8 -8.8°
Maximum altitude 06:10:59 12° 230° (SW) 1,325 -1.7 -8.6°
Drops below altitude 10° 06:12:23 10° 204° (SSW) 1,453 -1.3 -8.4°
Sets 06:15:25 0° 173° (S) 2,305 0.0 -7.8°
